sat.trackr.live / text

‹ back to catalog

ION SCV-016

NORAD 62628 · 2025-009V

PAYLOAD ACTIVE UNKNOWN

§ Identity

Operator
Country
IT
Launch date
2025-01-14
Launch site
AFWTR
Launch vehicle
Mass (kg)
RCS (m²)

External: N2YO · Heavens-Above · Gunter

§ Orbital elements

Epoch: 2026-09-22T14:44:35.791296Z

Period
99.00 min
Inclination
97.4225°
Eccentricity
0.0574551
Mean motion
14.54531757 rev/d
Perigee alt
303.6 km
Apogee alt
1,118.2 km
Semi-major
7,089.0 km
B*
3.7095e-4
RAAN
293.2181°
Arg perigee
157.3772°
Mean anomaly
205.3892°
Rev number
8,969

§ Raw data

ION SCV-0161 62628U 25009V   26265.61430314  .00018037  00000+0  37095-3 0  99982 62628  97.4225 293.2181 0574551 157.3772 205.3892 14.54531757 89693

JSON: /api/v1/satellites/62628 · /tle

For live sub-satellite position, see the globe view (requires WebGL).

§ Visibility from observer

Set your observer location to see the next 7 days of passes ≥ 10°. The values pass through the URL so the page stays shareable.

No JS? Fill the form by hand. The geolocation button needs JavaScript.

§ Radio — SatNOGS DB

ModeDescriptionDownlinkUplink
FSK AX.100 Mode 5 Mode U - FSK1k2 AX.100 401.415 MHz

1 transmitter · refreshed weekly from db.satnogs.org